[Iaude] MPEC C133: 2024 CW2 [a=0.75,e=0.37,i=3.2,H=24.5]

mpec at cfa.harvard.edu mpec at cfa.harvard.edu
Mon Feb 12 15:18:39 EST 2024


M.P.E.C. 2024-C133                            Issued 2024 February 12, 20:16 UT

     The Minor Planet Electronic Circulars contain information on unusual
         minor planets, routine data on comets and natural satellites,
         and occasional editorial announcements.  They are published
    on behalf of Division F of the International Astronomical Union by the
          Minor Planet Center, Smithsonian Astrophysical Observatory,
                          Cambridge, MA 02138, U.S.A.
			  
             Prepared using the Tamkin Foundation Computer Network

                              MPC at CFA.HARVARD.EDU
            URL https://www.minorplanetcenter.net/    ISSN 1523-6714

                                    2024 CW2                                    


Observations:
     K24C02W* C2024 02 11.10119 05 57 18.47 -09 28 46.9                XEC133W93
     K24C02W KC2024 02 11.10260 05 57 18.18 -09 28 27.9          19.6 RXEC133W93
     K24C02W KC2024 02 11.10681 05 57 17.29 -09 27 31.8          19.9 RXEC133W93
     K24C02W KC2024 02 11.11102 05 57 16.38 -09 26 35.3          20.1 RXEC133W93
     K24C02W  C2024 02 11.11380 05 57 15.80 -09 25 58.2                XEC133W93
     K24C02W KB2024 02 12.07223 05 55 17.05 -06 10 34.6          19.8 GVEC133734
     K24C02W KB2024 02 12.08557 05 55 14.70 -06 07 58.0          19.7 GVEC133734
     K24C02W KB2024 02 12.09873 05 55 12.39 -06 05 24.8          19.5 GVEC133734
     K24C02W  C2024 02 12.15056305 54 58.93 -05 52 06.5                WEC133X09
     K24C02W  C2024 02 12.15616905 54 57.95 -05 51 00.9                WEC133X09
     K24C02W KB2024 02 12.81979105 53 53.81 -03 53 20.6          19.2 GXEC133958
     K24C02W KB2024 02 12.82447805 53 53.03 -03 52 31.2                XEC133958
     K24C02W KB2024 02 12.82917305 53 52.36 -03 51 42.6          19.7 GXEC133958

Observer details:
734 Farpoint Observatory, Eskridge.  Observers D. Cromer, G. Hug, D. Goodin,
    R. Valentine.  Measurer D. Cromer.  0.69-m f/3.54 reflector + CMO.
958 Observatoire de Dax.  Observer P. Dupouy.  0.50-m f/4.5 Reflector + CMO.
W93 Korea Microlensing Telescope Network-CTIO.  Observers H. Jeon, D. Kim, C.
    Lee, O. Vaduvescu, E. Unda-Sanzana, M. Popescu.  Measurers L. Curelaru, O.
    Vaduvescu, M. Popescu, M. Stanescu, M. Predatu.  1.6-m f/3.0 reflector +
    CCD.
X09 Deep Random Survey, Rio Hurtado.  Observers A. Schnabel, D. Ruhela.
    Measurer S. Deen.  0.43-m reflector + CMOS.

Orbital elements:
2024 CW2                                                 Earth MOID = 0.0087 AU
Epoch 2023 Sept. 13.0 TT = JDT 2460200.5                MPC                     
M 281.54412              (2000.0)            P               Q                  
n   1.50588502     Peri.  169.04134     +0.90845505     +0.41777488             
a   0.7538325      Node   166.24186     -0.38755874     +0.85371775             
e   0.3698943      Incl.    3.17562     -0.15654917     +0.31085390             
P   0.65           H   24.51          G   0.15           U   9                  
Residuals in seconds of arc
240211 W93  0.1-  0.2+    240212 734 (0.0   2.6-)   240212 958  0.4+  0.3-
240211 W93  0.1+  0.2+    240212 734  0.1-  0.5-    240212 958  0.6-  0.2+
240211 W93  0.1+  0.0     240212 734  0.1+  0.5+    240212 958  0.1+  0.2-
240211 W93  0.2-  0.1+    240212 X09  0.1+  0.5-
240211 W93  0.1-  0.0     240212 X09  0.5-  0.4+

Ephemeris:
2024 CW2                 a,e,i = 0.75, 0.37, 3                   q = 0.4750
Date    TT    R. A. (2000) Decl.     Delta      r    Elong.  Phase     V
2024 01 13    17 14 26.5 -46 01 10   0.1005  0.9058    37.5   138.6    26.0
...
2024 01 28    15 17 23.1 -73 35 19   0.04146 0.9710    69.6   108.1    21.6
...
2024 02 05    06 30 35.3 -44 46 22   0.03086 0.9963   108.9    69.4    19.4
...
2024 02 11    05 57 36.7 -09 52 47   0.04531 1.0108   120.9    56.9    19.9
2024 02 12    05 55 22.9 -06 22 38   0.04877 1.0129   120.9    56.8    20.0
2024 02 13    05 53 34.1 -03 20 25   0.05239 1.0149   120.6    56.8    20.2
...
2024 02 19    05 48 03.7 +08 30 13   0.07607 1.0245   116.5    59.7    21.1
...
2024 02 27    05 47 46.7 +16 07 16   0.1096  1.0316   109.3    64.9    22.1
...
2024 03 13    05 55 26.3 +22 31 48   0.1711  1.0271    96.4    74.1    23.3

A. U. Tomatic                (C) Copyright 2024 MPC           M.P.E.C. 2024-C133





More information about the Iaude mailing list